Weather in Yanaul

Russia / Republic of Bashkortostan     56°12′47″N   56°16′01″E
temp.,
°C
wind,
m/s
gust,
m/s
humid.,
%
clouds,
%
prec.,
mm/h
press.,
hPa
HPBL,
m
27 february, sat
sat2723:00−20se469378 0.0 101987
02:00−19se489318 0.0 1016135
05:00−17se5118759 0.0 1013255
08:00−15se71390100 0.1 1009597
11:00−13se61094100 1.0 1007581
14:00−11se6891100 0.8 1006725
17:00−9se4791100 1.2 1006733
20:00−11e4795100 0.4 1005265
28 february, sun
sun2823:00−14e5119196 0.6 1005284
02:00−13e5109296 0.2 1003299
05:00−13ene5109190 0.2 1003308
08:00−13ene499390 0.1 1003321
11:00−11ene599195 0.3 1003409
14:00−8ene588996 0.1 1004522
17:00−8ne589098 0.3 1005611
20:00−10ne499394 0.1 1007347
1 march, mon
mon123:00−12ne499297 0.2 1010340
02:00−14ne489388 0.1 1011312
05:00−16nne479492 0.1 1013258
08:00−17nne379593 0.1 1015264
11:00−15ne469086 0.1 1016390
14:00−12nne348695 0.0 1017513
17:00−12n348897 0.1 1018498
20:00−17nne229689 0.0 101920
2 march, tue
tue223:00−21wnw0010047 0.0 101920
02:00−20sw2210030 0.0 101820
05:00−22ssw3410065 0.1 101775
08:00−22s4999100 0.0 1015194
11:00−18s61194100 0.1 1013360
14:00−14s7118999 0.0 1010464
17:00−13s71292100 0.1 1008515
20:00−13s61394100 0.7 1007582
3 march, wed
wed323:00−13s61393100 1.1 1006524
02:00−14s51293100 0.2 1004434
05:00−14sse41095100 0.4 1003370
08:00−13sse4995100 0.6 1002350
11:00−10sse3593100 1.2 1001364
14:00−6sse2389100 0.4 1000417
17:00−5ne1294100 0.9 1000195
20:00−8n3496100 0.4 100092